Weather History for Belmar-Farmingdale, NJ

Change the Weather History Date:

Saturday, November 16, 2013

  Actual Average Record
Temperature  
Mean Temperature 48 °F -  
Max Temperature 53 °F 51 °F 71 °F (2005)
Min Temperature 42 °F 35 °F 21 °F (1996)
Degree Days  
Heating Degree Days 18    
Moisture  
Dew Point 39 °F    
Average Humidity 74    
Maximum Humidity 87    
Minimum Humidity 57    
Precipitation  
Precipitation 0.05 in - - ()
Sea Level Pressure  
Sea Level Pressure 30.29 in    
Wind  
Wind Speed 4 mph (SSW)    
Max Wind Speed 8 mph    
Max Gust Speed -    
Visibility 9 miles    
Events      
Averages and records for this station are not official NWS values.
T = Trace of Precipitation, MM = Missing Value Source: NWS Daily Summary

Daily Weather History Graph

Daily Weather History Graph

Search for Another Location

Airport:

Trip Planner

Search our weather history database for the weather conditions in past years. The results will help you decide how hot, cold, wet, or windy it might be!

Date:

Astronomy

Nov. 16, 2013 Rise Set
Actual Time 6:43 AM EST 4:38 PM EST
Civil Twilight 6:14 AM EST 5:07 PM EST
Nautical Twilight 5:41 AM EST 5:40 PM EST
Astronomical Twilight 5:09 AM EST 6:12 PM EST
Moon 4:12 PM EST (11/16) 5:37 AM EST (11/16)
Length of Visible Light 10h 53m
Length of Day
9h 55m
Waxing Gibbous, 99% of the Moon is Illuminated
Nov 16
Waxing Gibbous
Nov 17
Full
Nov 25
Last Quarter
Dec 2
New
Dec 9
First Quarter

Hourly Weather History & Observations

Time (EST) Temp. Windchill Dew Point Humidity Pressure Visibility Wind Dir Wind Speed Gust Speed Precip Events Conditions
12:15 AM 42.8 °F 38.0 °F 28.4 °F 57% 30.25 in 10.0 mi SW 8.1 mph - N/A   Clear
12:35 AM 42.8 °F 39.3 °F 28.4 °F 57% 30.25 in 10.0 mi WSW 5.8 mph - N/A   Clear
12:55 AM 42.8 °F 40.1 °F 28.4 °F 57% 30.25 in 10.0 mi WSW 4.6 mph - N/A   Clear
1:15 AM 42.8 °F 40.1 °F 28.4 °F 57% 30.25 in 10.0 mi West 4.6 mph - N/A   Clear
1:35 AM 42.8 °F - 28.4 °F 57% 30.25 in 10.0 mi Calm Calm - N/A   Mostly Cloudy
1:55 AM 42.8 °F 38.6 °F 30.2 °F 61% 30.27 in 10.0 mi WSW 6.9 mph - N/A   Overcast
2:15 AM 42.8 °F 40.1 °F 30.2 °F 61% 30.27 in 10.0 mi West 4.6 mph - N/A   Mostly Cloudy
2:35 AM 42.8 °F 40.1 °F 30.2 °F 61% 30.26 in 10.0 mi West 4.6 mph - N/A   Mostly Cloudy
2:55 AM 42.8 °F 40.1 °F 30.2 °F 61% 30.26 in 10.0 mi West 4.6 mph - N/A   Overcast
3:15 AM 42.8 °F 40.1 °F 30.2 °F 61% 30.26 in 10.0 mi West 4.6 mph - N/A   Overcast
3:35 AM 42.8 °F 38.6 °F 30.2 °F 61% 30.27 in 10.0 mi WSW 6.9 mph - N/A   Overcast
3:55 AM 42.8 °F 41.1 °F 30.2 °F 61% 30.26 in 10.0 mi West 3.5 mph - N/A   Overcast
4:15 AM 42.8 °F - 30.2 °F 61% 30.26 in 10.0 mi Calm Calm - N/A   Overcast
4:35 AM 42.8 °F 40.1 °F 30.2 °F 61% 30.27 in 10.0 mi NW 4.6 mph - N/A   Overcast
4:55 AM 44.6 °F - 32.0 °F 61% 30.27 in 10.0 mi Calm Calm - N/A   Overcast
5:15 AM 42.8 °F - 33.8 °F 70% 30.27 in 10.0 mi Calm Calm - N/A   Overcast
5:35 AM 42.8 °F - 33.8 °F 70% 30.27 in 10.0 mi Calm Calm - N/A   Overcast
5:55 AM 44.6 °F - 35.6 °F 71% 30.28 in 10.0 mi Calm Calm - N/A   Overcast
6:15 AM 42.8 °F - 37.4 °F 81% 30.29 in 8.0 mi Calm Calm - 0.01 in   Overcast
6:35 AM 42.8 °F - 35.6 °F 76% 30.30 in 10.0 mi Calm Calm - 0.02 in   Overcast
6:55 AM 42.8 °F - 35.6 °F 76% 30.31 in 9.0 mi Calm Calm - 0.02 in   Overcast
7:15 AM 42.8 °F - 37.4 °F 81% 30.31 in 5.0 mi Calm Calm - 0.02 in   Overcast
7:35 AM 42.8 °F 41.1 °F 37.4 °F 81% 30.32 in 8.0 mi NW 3.5 mph - 0.02 in   Overcast
7:55 AM 42.8 °F - 37.4 °F 81% 30.32 in 9.0 mi Calm Calm - 0.03 in   Overcast
8:15 AM 44.6 °F - 37.4 °F 76% 30.32 in 10.0 mi Calm Calm - N/A   Overcast
8:35 AM 44.6 °F 43.1 °F 39.2 °F 81% 30.31 in 7.0 mi ENE 3.5 mph - N/A   Overcast
8:55 AM 46.4 °F - 39.2 °F 76% 30.32 in 10.0 mi Calm Calm - N/A   Overcast
9:15 AM 46.4 °F - 39.2 °F 76% 30.33 in 10.0 mi Calm Calm - N/A   Overcast
9:35 AM 48.2 °F - 41.0 °F 76% 30.33 in 10.0 mi East 4.6 mph - N/A   Overcast
9:55 AM 48.2 °F - 41.0 °F 76% 30.35 in 10.0 mi SE 3.5 mph - N/A   Overcast
10:15 AM 48.2 °F - 42.8 °F 82% 30.35 in 10.0 mi South 6.9 mph - N/A   Overcast
10:35 AM 48.2 °F - 42.8 °F 82% 30.34 in 10.0 mi SSE 3.5 mph - N/A   Overcast
10:55 AM 50.0 °F - 42.8 °F 76% 30.34 in 10.0 mi SSE 4.6 mph - N/A   Overcast
11:15 AM 51.8 °F - 42.8 °F 71% 30.32 in 10.0 mi South 4.6 mph - N/A   Overcast
11:35 AM 51.8 °F - 42.8 °F 71% 30.32 in 10.0 mi SSE 5.8 mph - N/A   Mostly Cloudy
11:55 AM 51.8 °F - 42.8 °F 71% 30.31 in 10.0 mi South 4.6 mph - N/A   Mostly Cloudy
12:15 PM 53.6 °F - 42.8 °F 67% 30.31 in 10.0 mi SE 5.8 mph - N/A   Overcast
12:35 PM 53.6 °F - 42.8 °F 67% 30.30 in 10.0 mi South 8.1 mph - N/A   Overcast
12:55 PM 53.6 °F - 44.6 °F 72% 30.30 in 10.0 mi South 6.9 mph - N/A   Overcast
1:15 PM 53.6 °F - 44.6 °F 72% 30.30 in 10.0 mi South 4.6 mph - N/A   Overcast
1:35 PM 53.6 °F - 44.6 °F 72% 30.29 in 10.0 mi South 5.8 mph - N/A   Overcast
1:55 PM 53.6 °F - 44.6 °F 72% 30.30 in 10.0 mi SSW 6.9 mph - N/A   Overcast
2:15 PM 53.6 °F - 44.6 °F 72% 30.30 in 10.0 mi SSW 5.8 mph - N/A   Overcast
2:35 PM 53.6 °F - 44.6 °F 72% 30.31 in 10.0 mi SSE 6.9 mph - N/A   Overcast
2:55 PM 53.6 °F - 44.6 °F 72% 30.32 in 10.0 mi South 5.8 mph - N/A   Overcast
3:15 PM 53.6 °F - 44.6 °F 72% 30.31 in 10.0 mi South 5.8 mph - N/A   Overcast
3:35 PM 51.8 °F - 44.6 °F 76% 30.31 in 10.0 mi South 6.9 mph - N/A   Overcast
3:55 PM 51.8 °F - 44.6 °F 76% 30.30 in 10.0 mi SSE 6.9 mph - N/A   Mostly Cloudy
4:15 PM 51.8 °F - 42.8 °F 71% 30.30 in 10.0 mi SSE 6.9 mph - N/A   Mostly Cloudy
4:35 PM 50.0 °F - 42.8 °F 76% 30.31 in 10.0 mi South 4.6 mph - N/A   Mostly Cloudy
4:55 PM 50.0 °F - 42.8 °F 76% 30.31 in 10.0 mi South 3.5 mph - N/A   Mostly Cloudy
5:15 PM 48.2 °F - 42.8 °F 82% 30.30 in 10.0 mi Calm Calm - N/A   Mostly Cloudy
5:35 PM 48.2 °F - 42.8 °F 82% 30.31 in 10.0 mi Calm Calm - N/A   Mostly Cloudy
5:55 PM 48.2 °F - 42.8 °F 82% 30.30 in 10.0 mi Calm Calm - N/A   Mostly Cloudy
6:15 PM 48.2 °F - 42.8 °F 82% 30.30 in 10.0 mi Calm Calm - N/A   Overcast
6:35 PM 48.2 °F - 42.8 °F 82% 30.30 in 10.0 mi Calm Calm - N/A   Overcast
6:55 PM 46.4 °F - 41.0 °F 81% 30.31 in 10.0 mi Calm Calm - N/A   Scattered Clouds
7:15 PM 46.4 °F - 39.2 °F 76% 30.30 in 10.0 mi Calm Calm - N/A   Clear
7:35 PM 44.6 °F - 39.2 °F 81% 30.30 in 7.0 mi Calm Calm - N/A   Clear
7:55 PM 46.4 °F - 41.0 °F 81% 30.30 in 6.0 mi Calm Calm - N/A   Clear
8:15 PM 44.6 °F - 41.0 °F 87% 30.29 in 4.0 mi Calm Calm - N/A   Clear
8:35 PM 44.6 °F - 39.2 °F 81% 30.29 in 5.0 mi Calm Calm - N/A   Clear
8:55 PM 44.6 °F - 39.2 °F 81% 30.29 in 6.0 mi Calm Calm - N/A   Clear
9:15 PM 44.6 °F - 39.2 °F 81% 30.29 in 2.0 mi Calm Calm - N/A   Clear
9:35 PM 42.8 °F - 37.4 °F 81% 30.29 in 5.0 mi Calm Calm - N/A   Clear
9:55 PM 42.8 °F 41.1 °F 37.4 °F 81% 30.29 in 5.0 mi NW 3.5 mph - N/A   Mostly Cloudy
10:15 PM 44.6 °F - 39.2 °F 81% 30.28 in 3.0 mi Calm Calm - N/A   Overcast
10:35 PM 46.4 °F - 42.8 °F 87% 30.28 in 5.0 mi Calm Calm - N/A   Overcast
10:55 PM 44.6 °F 42.2 °F 41.0 °F 87% 30.28 in 5.0 mi NNW 4.6 mph - N/A   Overcast
11:15 PM 46.4 °F - 42.8 °F 87% 30.28 in 5.0 mi Calm Calm - N/A   Overcast
11:35 PM 46.4 °F - 42.8 °F 87% 30.27 in 5.0 mi Calm Calm - N/A   Overcast
11:55 PM 46.4 °F - 42.8 °F 87% 30.27 in 5.0 mi Calm Calm - N/A   Overcast